INMARSAT 5-F4

Last updated on Sept. 30, 2020, 5:50 a.m. UTC

1 42698U 17025A   20273.57969387  .00000057  00000-0  00000-0 0  9994
2 42698   0.0016 152.1320 0000245  97.9986  23.8601  1.00270849 12342
UTC
Height (km)
Latitude
Longitude
Inclination
Orbital Period
UTC large
Height (km)
Speed (km/s)
/
Latitude / Longitude
Inclination (degrees)
Orbital Period (minutes)
Azimuth
Elevation
Range (km)
Doppler Factor
iOS Compass Heading
iOS Angle

Next 30 passes for location: Hong Kong

Rise time Rise Azimuth (degrees) Set time Set Azimuth (degrees) Duration Max altitude (degrees)

No matching passes for this satellites